This is the latest recevied weather packets stored in our database for station/object IW3HBX-13. If no packets are shown the sender has not sent any weather packets the latest 10 day(s).
| Time | Temp. | Humidity | Pressure | Rain* | Wind** | Luminosity | Snow |
|---|---|---|---|---|---|---|---|
| 1777489567 | 15° C | 69% | 1019.7 hPa | 0 mm | - | 0 W/m² | - |
| 1777488847 | 15° C | 68% | 1019.4 hPa | 0 mm | - | 0 W/m² | - |
| 1777488487 | 15° C | 67% | 1019.3 hPa | 0 mm | - | 0 W/m² | - |
| 1777488127 | 15° C | 67% | 1019.3 hPa | 0 mm | - | 0 W/m² | - |
| 1777487770 | 15.56° C | 66% | 1019.3 hPa | 0 mm | - | 0 W/m² | - |
| 1777487410 | 15° C | 66% | 1019.1 hPa | 0 mm | - | 0 W/m² | - |
| 1777487048 | 15.56° C | 66% | 1019 hPa | 0 mm | - | 0 W/m² | - |
| 1777486689 | 15.56° C | 66% | 1018.9 hPa | 0 mm | - | 1 W/m² | - |
| 1777486329 | 15.56° C | 65% | 1018.8 hPa | 0 mm | - | 1 W/m² | - |
| 1777485970 | 16.11° C | 65% | 1018.7 hPa | 0 mm | - | 2 W/m² | - |
| 1777485250 | 16.11° C | 65% | 1018.4 hPa | 0 mm | - | 4 W/m² | - |
| 1777484887 | 16.11° C | 64% | 1018.4 hPa | 0 mm | - | 5 W/m² | - |
| 1777484527 | 16.11° C | 63% | 1018.4 hPa | 0 mm | - | 5 W/m² | - |
| 1777484167 | 16.11° C | 63% | 1018.3 hPa | 0 mm | - | 6 W/m² | - |
| 1777483810 | 16.67° C | 64% | 1018.3 hPa | 0 mm | - | 6 W/m² | - |
| 1777483447 | 16.67° C | 63% | 1018.3 hPa | 0 mm | - | 8 W/m² | - |
| 1777483087 | 16.67° C | 63% | 1018.3 hPa | 0 mm | - | 13 W/m² | - |
| 1777482730 | 16.67° C | 63% | 1018.3 hPa | 0 mm | - | 19 W/m² | - |
| 1777482367 | 16.67° C | 62% | 1018.2 hPa | 0 mm | - | 28 W/m² | - |
| 1777481647 | 16.67° C | 62% | 1018.2 hPa | 0 mm | - | 32 W/m² | - |
| 1777481287 | 16.67° C | 63% | 1018.2 hPa | 0 mm | - | 29 W/m² | - |
| 1777480930 | 16.67° C | 63% | 1018.1 hPa | 0 mm | - | 36 W/m² | - |
| 1777480567 | 16.67° C | 63% | 1018.2 hPa | 0 mm | - | 39 W/m² | - |
| 1777480210 | 16.67° C | 63% | 1018.2 hPa | 0 mm | - | 43 W/m² | - |
| 1777479849 | 16.67° C | 62% | 1018.2 hPa | 0 mm | - | 50 W/m² | - |
* Rain latest hour (hover to see other rain measurements)
** Current wind speed in m/s (hover to see current wind gust speed)